NOAA 16 DEB, 41146

Orbit data source: Space-Track

NOAA 16 DEB, 41146 is space debris in SSO originally from a launch on Thu, 21 Sep 2000 UTC launched from the Air Force Western Test Range (AFWTR). Debris objects in space refer to the collection of defunct objects orbiting the Earth. Examples of debris include non-operational satellites, rocket bodies, and fragments generated from explosions, collisions, or faulty payload assembly.

Loading next visibility...
NOAA 16 DEB details
Identifier
41146, 2000-055CD
Orbit
SSO
Last TLE update2 days ago
Origin
Flag of USNOAA (US)
ManufacturerUnknown
MissionSpacecraft
Bus & MotorUnknown
MassUnknown
Launch date (UTC)
2000-09-21 (24 years ago)
Launch vehicleUnknown
Launch site
Air Force Western Test Range (AFWTR)
Object type
Payload
Rocket body
Debris
Shape & HBRUnknown
Radar Cross SectionSmall (<0.1 m²)

Expand to show TLE details & history

TLE from 2 days ago
0 NOAA 16 DEB
1 41146U 00055CD  24360.13031125  .00025994  00000-0  88366-2 0  9999
2 41146  98.8302  94.1295 0024120 271.1073  88.7349 14.36353714468529
Epoch: 2024-12-25T03:07Z
Definitive object data (Epoch: 2024-12-25T03:07:38.892Z)
Latitude0.00003°
Longitude-46.91103°
Altitude773.165 km
Speed7.468 km/s
True Right ascension06h 16m 31s
True Declination0° 00' 00"
Sunlit
Object was in full shadow at TLE epoch
Visualization TLE readout
Latitude-6.24292°
Longitude133.79901°
Altitude771.247 km
Speed7.47 km/s
Apparent Right ascension19h 23m 03s
Apparent Declination-64° 12' 30"
Sunlit
Object is in daylight
Visualization observer readout
Local Sidereal Time17:49:13
Azimuth169.632° S
Elevation-15.76°
Doppler factor1
Orbital elements
Apogee altitude784.95 km
Perigee altitude750.478 km
Semi-major axis7,145.851 km
Eccentricity0.002412
Inclination98.8302°
RAAN94.1295°
Arg. of periapsis271.1073°
True anomaly89.01124°
Mean anomaly88.7349°
Eccentric anomaly88.87307°
Mean motion3.59304 °/min
BSTAR0.0088366
Orbital period100.19 mins
Loading maneuver chart data...
Loading historical data...
Loading historical data...
Loading historical data...
Loading historical data...
Loading historical data...
Loading historical data...
Loading historical data...

NOAA 16 DEB Visibility forecast

Observer location: undefined°, undefined

Span
Click to sort rows by Start time (UTC) header in descending order
Start Az.
Max El. time (UTC)
Max El. Az.
Max El.
End time (UTC)
End Az.
9 mins2024-12-26 19:48:43.475Z4.228° NNE2024-12-26 19:53:43.475Z285.478° WNW39.205°2024-12-26 19:57:43.475Z214.774° SW
6 mins2024-12-27 05:26:43.475Z104.421° ESE2024-12-27 05:29:43.475Z56.608° ENE22.308°2024-12-27 05:32:43.475Z17.09° NNE
8 mins2024-12-27 07:04:43.475Z200.828° SSW2024-12-27 07:07:43.475Z252.028° W32.376°2024-12-27 07:12:43.475Z330.109° NNW
|